THORAD AGENA D DEB, 42514

Orbit data source: Space-Track

THORAD AGENA D DEB, 42514 is space debris in SSO originally from a launch on Wed, 08 Apr 1970 UTC launched from the Air Force Western Test Range (AFWTR). Debris objects in space refer to the collection of defunct objects orbiting the Earth. Examples of debris include non-operational satellites, rocket bodies, and fragments generated from explosions, collisions, or faulty payload assembly.

Loading next visibility...
Identifier
42514, 1970-025RU
Orbit
SSO
Country
Flag of USUS
Related business
Manufacturer
Unknown
Mission
Spacecraft
Bus & Motor
Unknown
Mass
Unknown
Launch date (UTC)
1970-04-08 (56 years ago)
Launch vehicle
Unknown
Launch site
Air Force Western Test Range (AFWTR)
Object type
Payload
Rocket body
Debris
Shape & HBR
Unknown shape, 0.1 m
Radar Cross Section
Small (<0.1 m²)

Expand to show TLE details & history
Last TLE update: 1 day ago

TLE from 1 day ago
0 THORAD AGENA D DEB
1 42514U 70025RU  26207.12334306  .00000476  00000-0  11121-2 0  9994
2 42514  99.3971 325.9608 0184487 217.6713 141.1368 13.23387345611751
Epoch: 2026-07-26T02:57Z
TLE epoch observation values (Epoch: 2026-07-26T02:57:36.840Z)
Latitude
-0.00005°
Longitude
-22.26848°
Altitude
1,284.033 km
Speed
7.162 km/s
True Right ascension
21h 43m 50s
True Declination
0° 00' 00"
Sunlit
Object was in full shadow at epoch
Visualization orbit readout
Latitude
Unknown
Longitude
Unknown
Altitude
Unknown
Speed
Unknown
Apparent Right ascension
Unknown
Apparent Declination
Unknown
Sunlit
N/A
Visualization observer readout
Local Sidereal Time
00:49:22
Azimuth
Unknown
Elevation
Unknown
Doppler factor
Unknown
Orbital elements
Apogee altitude
1,308.367 km
Perigee altitude
1,029.892 km
Semi-major axis
7,547.267 km
Eccentricity
0.01845
Inclination
99.3971°
RAAN
325.9608°
Arg. of periapsis
217.6713°
True anomaly
142.43977°
Mean anomaly
141.1368°
Eccentric anomaly
141.79061°
Mean motion
3.31023 °/min
Orbital period
108.75 mins
BSTAR
0.0011121
Loading maneuver chart data...
Computing Atmospheric mass density...

Documentation

Showing up to 5 results
|